LEMUR-2-DUSTINTHEWIND (44406 NORAD) Tracking and Keplerian Element Data

This shows tracking and keplerian element data for the satellite.

Feedback or suggestion? Click here.




ElementValue
Catalog44406
NameLEMUR-2-DUSTINTHEWIND
Epoch Orbit231
Epoch Day201.85434198
Epoch Year2019
RAAN163.5057
Inclination97.4908
Eccentricity0.0024569
Argument of Perigee187.5166
Mean Anonmoly172.5699
Mean Motion15.11808799
Decay Rate3.2E-06
L11 44406U 19038W 19201.85434198 .00000320 00000-0 22423-4 0 9996
L22 44406 97.4908 163.5057 0024569 187.5166 172.5699 15.11808799 2318

Live tracking and technical data element details for LEMUR-2-DUSTINTHEWIND (NORAD 44406). LEMUR-2-DUSTINTHEWIND can be tracked NOW for your location showing map with azimuth and elevation plus other details from your city location.

Track the satellite on the map from your city or location and see movement details for azimuth, elevation, latitude, longitude, range, height, and movement on the map or in text.







IsCatalogInMostPopularTable: catalog: 44406, numindb: 2
Update: records affected: 1



GetName: 44406 LEMUR-2-DUSTINTHEWIND

Hit Count: updated at: Sun, 21 Jul 2019 20:56:32 GMT